Tracking 27380 objects as of 6-Jun-2023
HD Live streaming from Space Station
objects crossing your sky now

CZ-4 DEB

Track CZ-4 DEB now!
10-day predictions


NORAD ID: 37616
Int'l Code: 1990-081DC
Perigee: 856.7 km
Apogee: 1,006.5 km
Inclination: 98.8 °
Period: 103.5 minutes
Semi major axis: 7302 km
RCS: 0.0129 m2 (small)
Launch date: September 3, 1990
Source: People's Republic of China (PRC)
Launch site: Taiyaun Space Center, China (TSC)

Note: This is SATELLITE DEBRIS
Your satellite tracking list
Your tracking list is empty




NASA's NSSDC Master Catalog

Two Line Element Set (TLE):
1 37616U 90081DC  23156.24360689  .00000298  00000-0  25809-3 0  9992
2 37616  98.8290 164.8992 0102576  57.1255 303.9727 13.91202758562547
Source of the keplerian elements: AFSPC